TDRS 7

Last updated on Aug. 14, 2020, 5:30 a.m. UTC

1 23613U 95035B   20226.01502602 -.00000199  00000-0  00000+0 0  9994
2 23613  14.1843   4.0429 0028350  38.7092   9.2859  1.00276835 91751
UTC
Height (km)
Latitude
Longitude
Inclination
Orbital Period
UTC large
Height (km)
Speed (km/s)
/
Latitude / Longitude
Inclination (degrees)
Orbital Period (minutes)
Azimuth
Elevation
Range (km)
Doppler Factor
iOS Compass Heading
iOS Angle

Next 30 passes for location: Hong Kong

Rise time Rise Azimuth (degrees) Set time Set Azimuth (degrees) Duration Max altitude (degrees)

No matching passes for this satellites